Location: Goettingen
(51.5300°N, 9.9433°E)
Time: 21:26:22
(UTC+02:00)

ISS - Pass Details

Date: 25 May 2017
Orbit: 402 x 409 km, 51.6° (Epoch: 25 May)

Event Time Altitude Azimuth Distance (km) Brightness Sun altitude
Rises 02:40:28 0° 281° (WNW) 2,332 -0.1 -15.2°
Reaches altitude 10° 02:42:33 10° 279° (W) 1,469 -1.1 -15.1°
Maximum altitude 02:45:50 66° 197° (SSW) 446 -3.9 -15.0°
Drops below altitude 10° 02:49:05 10° 114° (ESE) 1,461 -1.0 -14.8°
Sets 02:51:10 0° 112° (ESE) 2,317 0.0 -14.6°
